Location: Ernez
(36.4595°N, 29.8755°E)
Time: 08:53:49
(UTC+00:00)

Cosmos 1943 Rocket - Pass Details

Date: 13 November 2025
Orbit: 812 x 841 km, 71.0° (Epoch: 05 December)

Event Time Altitude Azimuth Distance (km) Brightness Sun altitude
Rises 17:15:41 0° 231° (SW) 3,378 6.1 -28.7°
Reaches altitude 10° 17:18:29 10° 243° (WSW) 2,444 5.4 -29.3°
Maximum altitude 17:23:12 28° 301° (WNW) 1,535 4.0 -30.2°
Enters shadow 17:27:10 13° 353° (N) 2,207 4.4 -31.0°
